User: anonymous
Location: Rehoboth Beach
(38.7438°N, 75.1341°W)
Time: 22:58:17
(UTC-04:00)
Language:

Cosmos 1452 Rocket - Orbit

View from above orbital plane
View from above orbital plane
View from above satellite
View from above satellite

Ground track
Ground track

The orbit data is extracted from the following two-line orbital elements,

1 13992U 83031B   14210.15757558  .00000164  00000-0  65871-4 0  4672
2 13992 074.0543 139.9890 0004811 009.9720 091.6514 14.35755544637510
Epoch (UTC): 29 July 2014 03:46:54
Eccentricity: 0.0004811
inclination: 74.0543°
perigee height: 769 km
apogee height: 776 km
right ascension of ascending node: 139.9890°
argument of perigee: 9.9720°
revolutions per day: 14.35755544
mean anomaly at epoch: 91.6514°
orbit number at epoch: 63751

The dashed part of the orbit path shows where the satellite is in the earth's shadow,  

DLR